Location: Newark
(34.3481°N, 134.0494°E)
Time: 03:28:05
(UTC+00:00)

Vanguard 3 - Pass Details

Date: 29 January 2020
Orbit: 508 x 3263 km, 33.3° (Epoch: 17 February)

Event Time Altitude Azimuth Distance (km) Brightness Sun altitude
Rises 04:44:06 0° 207° (SSW) 5,644 12.5 33.6°
Reaches altitude 10° 04:47:50 10° 198° (SSW) 4,989 12.6 33.3°
Maximum altitude 05:01:29 37° 138° (SE) 4,099 11.2 32.0°
Drops below altitude 10° 05:18:21 10° 81° (E) 6,183 11.3 30.1°
Sets 05:23:35 0° 74° (ENE) 7,100 11.5 29.5°
